^^
Your Local Weather - Clay, NY Station Historical Data
Daily Summary for January 18, 2017 Units:  Metric    English   Both
« Previous Day
Next Day »
Daily Weekly Monthly Yearly Custom
  High: Low: Average:
Temperature: 3.1 °C 0.9 °C 2.1 °C
Dew Point: 2.2 °C 0.1 °C 1.2 °C
Humidity: 95% 93% 94%
Wind Speed: 4.8km/h 0km/h 1.3km/h
Wind Gust: 11.3km/h - -
Wind- - SSW
Pressure: 1015.8 hPa 1009 hPa -
Precipitation: 5.84 mm    
Historical Graphs
 
 
Tabular Data for January 18, 2017
Time Temperature Dew Point Pressure Wind Wind Speed Wind Gust Humidity Rainfall Rate (Hourly) solar
00:02 1.1 °C 0.1 °C 1009.7 hPa ENE 3.2 km/h 4.8 km/h 93% 0 mm 0 W/m2
00:08 1.1 °C 0.1 °C 1009.7 hPa ENE 1.6 km/h 4.8 km/h 93% 0 mm 0 W/m2
00:14 1.2 °C 0.2 °C 1009.7 hPa East 1.6 km/h 4.8 km/h 93% 0 mm 0 W/m2
00:20 1.2 °C 0.2 °C 1009.4 hPa ENE 3.2 km/h 3.2 km/h 93% 0 mm 0 W/m2
00:26 1.3 °C 0.4 °C 1009.4 hPa East 3.2 km/h 4.8 km/h 94% 0 mm 0 W/m2
00:32 1.2 °C 0.4 °C 1009.4 hPa ENE 3.2 km/h 3.2 km/h 94% 0 mm 0 W/m2
00:38 1.2 °C 0.4 °C 1009.4 hPa ENE 3.2 km/h 4.8 km/h 94% 0 mm 0 W/m2
00:44 1.2 °C 0.4 °C 1009.4 hPa ENE 3.2 km/h 4.8 km/h 94% 0 mm 0 W/m2
00:50 1.2 °C 0.4 °C 1009.4 hPa ENE 3.2 km/h 4.8 km/h 94% 0 mm 0 W/m2
00:56 1.2 °C 0.4 °C 1009.4 hPa ENE 3.2 km/h 4.8 km/h 94% 0 mm 0 W/m2
01:02 1.2 °C 0.4 °C 1009.4 hPa ENE 3.2 km/h 4.8 km/h 94% 0 mm 0 W/m2
01:08 1.2 °C 0.4 °C 1009.4 hPa ENE 3.2 km/h 4.8 km/h 94% 0 mm 0 W/m2
01:14 1.3 °C 0.4 °C 1009.4 hPa ENE 3.2 km/h 4.8 km/h 94% 0 mm 0 W/m2
01:20 1.3 °C 0.4 °C 1009.4 hPa ENE 3.2 km/h 3.2 km/h 94% 0 mm 0 W/m2
01:26 1.3 °C 0.4 °C 1009 hPa ESE 4.8 km/h 8 km/h 94% 0 mm 0 W/m2
01:32 1.3 °C 0.4 °C 1009.4 hPa ENE 4.8 km/h 11.3 km/h 94% 0 mm 0 W/m2
01:38 1.3 °C 0.5 °C 1009.4 hPa ENE 4.8 km/h 11.3 km/h 94% 0 mm 0 W/m2
01:44 1.3 °C 0.5 °C 1009.4 hPa East 4.8 km/h 4.8 km/h 94% 0 mm 0 W/m2
01:50 1.3 °C 0.5 °C 1009.4 hPa ENE 4.8 km/h 4.8 km/h 94% 0 mm 0 W/m2
01:56 1.2 °C 0.4 °C 1009.4 hPa ENE 4.8 km/h 4.8 km/h 94% 0 mm 0 W/m2
02:02 1.2 °C 0.4 °C 1009.4 hPa ENE 3.2 km/h 4.8 km/h 94% 0 mm 0 W/m2
02:08 1.2 °C 0.4 °C 1009.4 hPa ENE 3.2 km/h 4.8 km/h 94% 0 mm 0 W/m2
02:14 1.2 °C 0.4 °C 1009.4 hPa East 3.2 km/h 3.2 km/h 94% 0 mm 0 W/m2
02:20 1.2 °C 0.4 °C 1009.4 hPa East 3.2 km/h 3.2 km/h 94% 0 mm 0 W/m2
02:26 1.2 °C 0.4 °C 1009.4 hPa ENE 3.2 km/h 4.8 km/h 94% 0 mm 0 W/m2
02:32 1.3 °C 0.4 °C 1009.4 hPa ENE 3.2 km/h 3.2 km/h 94% 0 mm 0 W/m2
02:38 1.2 °C 0.4 °C 1009.4 hPa ENE 3.2 km/h 6.4 km/h 94% 0 mm 0 W/m2
02:44 1.2 °C 0.4 °C 1009.4 hPa ENE 3.2 km/h 3.2 km/h 94% 0 mm 0 W/m2
02:50 1.2 °C 0.4 °C 1009.4 hPa ENE 3.2 km/h 3.2 km/h 94% 0 mm 0 W/m2
02:56 1.2 °C 0.4 °C 1009.4 hPa ENE 3.2 km/h 3.2 km/h 94% 0 mm 0 W/m2
03:02 1.2 °C 0.3 °C 1009.4 hPa ENE 3.2 km/h 4.8 km/h 94% 0 mm 0 W/m2
03:08 1.3 °C 0.4 °C 1009.4 hPa ENE 3.2 km/h 4.8 km/h 94% 0 mm 0 W/m2
03:14 1.2 °C 0.4 °C 1009.4 hPa ENE 1.6 km/h 4.8 km/h 94% 0 mm 0 W/m2
03:20 1.2 °C 0.4 °C 1009.4 hPa ENE 3.2 km/h 3.2 km/h 94% 0 mm 0 W/m2
03:26 1.3 °C 0.4 °C 1009.4 hPa ENE 3.2 km/h 3.2 km/h 94% 0 mm 0 W/m2
03:32 1.2 °C 0.4 °C 1009.4 hPa ENE 1.6 km/h 4.8 km/h 94% 1.02 mm 0 W/m2
03:38 1.2 °C 0.4 °C 1009.4 hPa Calm   4.8 km/h 94% 1.02 mm 0 W/m2
03:44 1.2 °C 0.4 °C 1009.4 hPa NE 1.6 km/h 3.2 km/h 94% 1.02 mm 0 W/m2
03:50 1.2 °C 0.4 °C 1009.4 hPa Calm     94% 0 mm 0 W/m2
03:56 1.2 °C 0.4 °C 1009.4 hPa Calm     94% 0 mm 0 W/m2
04:02 1.2 °C 0.3 °C 1009.4 hPa Calm     94% 3.3 mm 0 W/m2
04:08 1.2 °C 0.4 °C 1009.7 hPa Calm     94% 1.52 mm 0 W/m2
04:14 1.3 °C 0.4 °C 1009.7 hPa Calm   1.6 km/h 94% 1.02 mm 0 W/m2
04:20 1.3 °C 0.4 °C 1009.7 hPa ENE 1.6 km/h 1.6 km/h 94% 0 mm 0 W/m2
04:26 1.3 °C 0.4 °C 1009.7 hPa ENE 1.6 km/h 1.6 km/h 94% 0 mm 0 W/m2
04:32 1.2 °C 0.3 °C 1009.7 hPa Calm   1.6 km/h 94% 0 mm 0 W/m2
04:38 1.2 °C 0.3 °C 1009.7 hPa ENE 1.6 km/h 1.6 km/h 94% 0 mm 0 W/m2
04:44 1.2 °C 0.4 °C 1010 hPa ENE 1.6 km/h 1.6 km/h 94% 0 mm 0 W/m2
04:50 1.2 °C 0.4 °C 1010 hPa ENE 1.6 km/h 1.6 km/h 94% 0 mm 0 W/m2
04:56 1.2 °C 0.4 °C 1010 hPa Calm   1.6 km/h 94% 0 mm 0 W/m2
05:02 1.1 °C 0.3 °C 1010 hPa Calm     94% 0 mm 0 W/m2
05:08 1.1 °C 0.3 °C 1010 hPa Calm     94% 0 mm 0 W/m2
05:14 1.1 °C 0.2 °C 1010.4 hPa Calm     94% 0 mm 0 W/m2
05:20 1.1 °C 0.2 °C 1010.4 hPa Calm     94% 0 mm 0 W/m2
05:26 1.1 °C 0.2 °C 1010.4 hPa Calm     94% 0 mm 0 W/m2
05:32 1 °C 0.2 °C 1010.4 hPa Calm     94% 0 mm 0 W/m2
05:38 1 °C 0.2 °C 1010.4 hPa Calm     94% 0 mm 0 W/m2
05:44 1 °C 0.2 °C 1010.4 hPa Calm     94% 0 mm 0 W/m2
05:50 0.9 °C 0.1 °C 1010.7 hPa Calm     94% 0 mm 0 W/m2
05:56 0.9 °C 0.1 °C 1010.7 hPa Calm     94% 0 mm 0 W/m2
06:02 1 °C 0.2 °C 1010.7 hPa Calm     94% 0 mm 0 W/m2
06:08 1.1 °C 0.2 °C 1010.7 hPa Calm     94% 0 mm 0 W/m2
06:14 1.1 °C 0.3 °C 1010.7 hPa Calm   1.6 km/h 94% 0 mm 0 W/m2
06:20 1.2 °C 0.3 °C 1010.7 hPa ENE 1.6 km/h 1.6 km/h 94% 0 mm 0 W/m2
06:26 1.2 °C 0.4 °C 1010.7 hPa Calm   1.6 km/h 94% 0 mm 0 W/m2
06:32 1.2 °C 0.4 °C 1011.1 hPa Calm     94% 0 mm 0 W/m2
06:38 1.2 °C 0.4 °C 1011.1 hPa Calm     94% 0 mm 0 W/m2
06:44 1.2 °C 0.4 °C 1011.1 hPa Calm   1.6 km/h 94% 0 mm 0 W/m2
06:50 1.2 °C 0.3 °C 1011.4 hPa North 1.6 km/h 3.2 km/h 94% 0 mm 0 W/m2
06:56 1.2 °C 0.3 °C 1011.4 hPa North 1.6 km/h 3.2 km/h 94% 0 mm 0 W/m2
07:02 1.2 °C 0.3 °C 1011.4 hPa Calm     94% 0 mm 0 W/m2
07:08 1.2 °C 0.3 °C 1011.4 hPa Calm     94% 0 mm 0 W/m2
07:14 1.2 °C 0.3 °C 1011.4 hPa Calm     94% 0 mm 0 W/m2
07:20 1.2 °C 0.3 °C 1011.7 hPa Calm     94% 0 mm 0 W/m2
07:26 1.1 °C 0.3 °C 1011.7 hPa Calm     94% 0 mm 0 W/m2
07:32 1.1 °C 0.2 °C 1011.7 hPa Calm     94% 0 mm 0 W/m2
07:38 1.2 °C 0.3 °C 1011.7 hPa Calm     94% 0 mm 0 W/m2
07:44 1.2 °C 0.3 °C 1011.7 hPa Calm     94% 0 mm 0 W/m2
07:50 1.2 °C 0.4 °C 1011.7 hPa Calm     94% 0 mm 0 W/m2
07:56 1.3 °C 0.4 °C 1012.1 hPa Calm     94% 0 mm 0 W/m2
08:02 1.5 °C 0.7 °C 1012.1 hPa Calm     94% 0 mm 5 W/m2
08:10 1.7 °C 0.8 °C 1012.1 hPa Calm     94% 0 mm 7 W/m2
08:16 2.1 °C 1.3 °C 1012.1 hPa Calm   1.6 km/h 95% 0 mm 9 W/m2
08:22 2.3 °C 1.4 °C 1012.1 hPa West 1.6 km/h 1.6 km/h 94% 0 mm 11 W/m2
08:28 2.4 °C 1.7 °C 1012.4 hPa West 1.6 km/h 3.2 km/h 95% 0 mm 14 W/m2
08:34 2.4 °C 1.7 °C 1012.4 hPa West 1.6 km/h 1.6 km/h 95% 0 mm 19 W/m2
08:40 2.6 °C 1.7 °C 1012.4 hPa West 1.6 km/h 1.6 km/h 94% 0 mm 25 W/m2
08:46 2.6 °C 1.7 °C 1012.1 hPa Calm   1.6 km/h 94% 0 mm 28 W/m2
08:52 2.7 °C 1.8 °C 1012.1 hPa Calm   1.6 km/h 94% 0 mm 35 W/m2
08:58 2.7 °C 1.8 °C 1012.1 hPa West 1.6 km/h 1.6 km/h 94% 0 mm 42 W/m2
09:04 2.7 °C 2 °C 1012.1 hPa Calm     95% 0 mm 42 W/m2
09:10 2.8 °C 2.1 °C 1012.1 hPa Calm     95% 0 mm 44 W/m2
09:16 2.8 °C 2.1 °C 1012.1 hPa Calm     95% 0 mm 51 W/m2
09:22 2.9 °C 2.2 °C 1012.4 hPa Calm   3.2 km/h 95% 0 mm 42 W/m2
09:28 2.8 °C 2.1 °C 1012.4 hPa West 1.6 km/h 3.2 km/h 95% 0 mm 33 W/m2
09:34 2.9 °C 2.2 °C 1012.4 hPa West 1.6 km/h 3.2 km/h 95% 0 mm 26 W/m2
09:40 2.8 °C 2.1 °C 1012.8 hPa West 1.6 km/h 1.6 km/h 95% 0 mm 28 W/m2
09:46 2.8 °C 2.1 °C 1012.8 hPa West 1.6 km/h 3.2 km/h 95% 0 mm 33 W/m2
09:52 2.9 °C 2.2 °C 1012.8 hPa West 1.6 km/h 1.6 km/h 95% 0 mm 33 W/m2
09:58 2.9 °C 2.2 °C 1012.8 hPa West 1.6 km/h 1.6 km/h 95% 0 mm 28 W/m2
10:04 2.9 °C 2.2 °C 1012.8 hPa WNW 1.6 km/h 1.6 km/h 95% 0 mm 25 W/m2
10:10 2.9 °C 2 °C 1013.1 hPa WNW 1.6 km/h 4.8 km/h 94% 0 mm 23 W/m2
10:16 2.8 °C 1.9 °C 1013.4 hPa WNW 3.2 km/h 4.8 km/h 94% 0 mm 32 W/m2
10:22 2.8 °C 1.9 °C 1013.4 hPa WNW 3.2 km/h 3.2 km/h 94% 0 mm 25 W/m2
10:42 2.8 °C 1.9 °C 1013.4 hPa WNW 1.6 km/h 1.6 km/h 94% 0 mm 30 W/m2
10:48 2.8 °C 1.9 °C 1013.4 hPa WNW 1.6 km/h 1.6 km/h 94% 0 mm 53 W/m2
11:16 3 °C 2.1 °C 1013.4 hPa WNW 1.6 km/h 1.6 km/h 94% 0 mm 54 W/m2
11:22 3 °C 2.1 °C 1013.4 hPa WNW 1.6 km/h 1.6 km/h 94% 0 mm 42 W/m2
11:28 2.9 °C 2.1 °C 1013.4 hPa WSW 1.6 km/h 6.4 km/h 94% 0 mm 54 W/m2
11:34 3 °C 2.1 °C 1013.4 hPa WSW 3.2 km/h 4.8 km/h 94% 0 mm 47 W/m2
11:40 3 °C 2.1 °C 1013.4 hPa WSW 3.2 km/h 3.2 km/h 94% 0 mm 44 W/m2
11:46 3 °C 2.1 °C 1013.4 hPa WSW 1.6 km/h 3.2 km/h 94% 0 mm 47 W/m2
11:52 3 °C 2.1 °C 1013.1 hPa West 1.6 km/h 4.8 km/h 94% 0 mm 60 W/m2
11:58 3.1 °C 2.2 °C 1013.1 hPa West 1.6 km/h 4.8 km/h 94% 0 mm 63 W/m2
12:06 3.1 °C 2.2 °C 1013.1 hPa WSW 1.6 km/h 1.6 km/h 94% 0 mm 54 W/m2
12:12 3.1 °C 2.2 °C 1012.8 hPa WSW 1.6 km/h 1.6 km/h 94% 0 mm 70 W/m2
12:18 3.1 °C 2.2 °C 1012.8 hPa NW 1.6 km/h 4.8 km/h 94% 0 mm 60 W/m2
12:26 3.1 °C 2.2 °C 1012.8 hPa WSW 1.6 km/h 1.6 km/h 94% 0 mm 60 W/m2
12:32 3.1 °C 2.2 °C 1012.8 hPa SW 1.6 km/h 1.6 km/h 94% 0 mm 42 W/m2
12:38 3.1 °C 2.2 °C 1012.8 hPa SW 1.6 km/h 6.4 km/h 94% 0 mm 42 W/m2
12:46 3.1 °C 2.2 °C 1012.8 hPa West 1.6 km/h 1.6 km/h 94% 0 mm 35 W/m2
12:52 3.1 °C 2.2 °C 1012.8 hPa Calm   1.6 km/h 94% 0 mm 51 W/m2
12:58 3.1 °C 2.2 °C 1012.8 hPa WSW 1.6 km/h 3.2 km/h 94% 0 mm 58 W/m2
13:06 3.1 °C 2.2 °C 1012.8 hPa West 1.6 km/h 3.2 km/h 94% 0 mm 69 W/m2
13:12 3.1 °C 2.2 °C 1012.8 hPa West 1.6 km/h 4.8 km/h 94% 0 mm 49 W/m2
13:18 3.1 °C 2.2 °C 1012.8 hPa West 1.6 km/h 4.8 km/h 94% 0 mm 40 W/m2
13:24 3.1 °C 2.1 °C 1012.8 hPa West 1.6 km/h 4.8 km/h 93% 0 mm 37 W/m2
13:30 3.1 °C 2.2 °C 1012.8 hPa West 1.6 km/h 1.6 km/h 94% 0 mm 39 W/m2
13:36 3.1 °C 2.2 °C 1012.8 hPa West 1.6 km/h 3.2 km/h 94% 0 mm 32 W/m2
13:42 3.1 °C 2.2 °C 1012.8 hPa WSW 1.6 km/h 1.6 km/h 94% 0 mm 40 W/m2
13:48 3.1 °C 2.2 °C 1012.8 hPa WSW 1.6 km/h 6.4 km/h 94% 0 mm 35 W/m2
13:54 3.1 °C 2.2 °C 1013.1 hPa WSW 1.6 km/h 6.4 km/h 94% 0 mm 30 W/m2
14:00 3 °C 2 °C 1013.1 hPa WSW 1.6 km/h 1.6 km/h 93% 0 mm 23 W/m2
14:06 3 °C 2 °C 1013.4 hPa WSW 3.2 km/h 3.2 km/h 93% 0 mm 26 W/m2
14:12 2.9 °C 1.9 °C 1013.4 hPa WSW 1.6 km/h 3.2 km/h 93% 0 mm 26 W/m2
14:18 2.9 °C 1.9 °C 1013.4 hPa WSW 1.6 km/h 4.8 km/h 93% 0 mm 26 W/m2
14:24 2.9 °C 1.9 °C 1013.4 hPa WSW 1.6 km/h 1.6 km/h 93% 0 mm 26 W/m2
14:30 2.9 °C 1.9 °C 1013.4 hPa WSW 1.6 km/h 3.2 km/h 93% 0 mm 28 W/m2
14:36 2.9 °C 1.9 °C 1013.8 hPa WSW 1.6 km/h 3.2 km/h 93% 0 mm 30 W/m2
14:42 2.9 °C 1.9 °C 1013.8 hPa WSW 1.6 km/h 4.8 km/h 93% 0 mm 26 W/m2
14:48 2.9 °C 1.9 °C 1013.8 hPa WSW 1.6 km/h 4.8 km/h 93% 0 mm 26 W/m2
14:54 2.9 °C 1.9 °C 1013.8 hPa Calm   3.2 km/h 93% 0 mm 19 W/m2
15:00 2.9 °C 1.9 °C 1013.8 hPa Calm     93% 0 mm 12 W/m2
15:06 2.9 °C 1.9 °C 1014.1 hPa Calm     93% 0 mm 12 W/m2
15:12 2.9 °C 1.9 °C 1014.1 hPa Calm   3.2 km/h 93% 0 mm 14 W/m2
15:18 2.9 °C 1.9 °C 1014.1 hPa WSW 1.6 km/h 3.2 km/h 93% 0 mm 14 W/m2
15:24 2.8 °C 1.8 °C 1014.1 hPa WSW 1.6 km/h 3.2 km/h 93% 0 mm 18 W/m2
15:30 2.8 °C 1.9 °C 1014.4 hPa WNW 1.6 km/h 1.6 km/h 94% 0 mm 14 W/m2
15:36 2.8 °C 1.9 °C 1014.4 hPa WNW 1.6 km/h 1.6 km/h 94% 0 mm 11 W/m2
15:42 2.8 °C 1.8 °C 1014.4 hPa Calm   1.6 km/h 93% 0 mm 11 W/m2
15:48 2.8 °C 1.8 °C 1014.8 hPa WNW 1.6 km/h 1.6 km/h 93% 0 mm 9 W/m2
15:56 2.8 °C 1.8 °C 1014.8 hPa WSW 1.6 km/h 3.2 km/h 93% 0 mm 7 W/m2
16:02 2.8 °C 1.8 °C 1014.8 hPa WNW 3.2 km/h 8 km/h 93% 0 mm 7 W/m2
16:08 2.8 °C 1.8 °C 1014.8 hPa WNW 3.2 km/h 8 km/h 93% 0 mm 7 W/m2
16:16 2.7 °C 1.7 °C 1014.8 hPa West 1.6 km/h 3.2 km/h 93% 0 mm 5 W/m2
16:22 2.7 °C 1.7 °C 1014.8 hPa West 1.6 km/h 4.8 km/h 93% 0 mm 0 W/m2
16:28 2.7 °C 1.7 °C 1015.1 hPa WNW 1.6 km/h 6.4 km/h 93% 0 mm 0 W/m2
16:36 2.7 °C 1.7 °C 1015.1 hPa West 3.2 km/h 4.8 km/h 93% 0 mm 0 W/m2
16:42 2.6 °C 1.6 °C 1015.1 hPa WNW 1.6 km/h 4.8 km/h 93% 0 mm 0 W/m2
16:48 2.6 °C 1.6 °C 1015.5 hPa West 1.6 km/h 4.8 km/h 93% 0 mm 0 W/m2
16:54 2.6 °C 1.6 °C 1015.5 hPa West 1.6 km/h 1.6 km/h 93% 0 mm 0 W/m2
17:00 2.6 °C 1.6 °C 1015.5 hPa Calm     93% 0 mm 0 W/m2
17:06 2.6 °C 1.6 °C 1015.5 hPa Calm     93% 0 mm 0 W/m2
17:12 2.6 °C 1.6 °C 1015.5 hPa Calm     93% 0 mm 0 W/m2
17:18 2.6 °C 1.6 °C 1015.5 hPa Calm   3.2 km/h 93% 0 mm 0 W/m2
17:24 2.5 °C 1.5 °C 1015.5 hPa Calm     93% 0 mm 0 W/m2
17:30 2.5 °C 1.6 °C 1015.8 hPa Calm     94% 0 mm 0 W/m2
17:36 2.5 °C 1.6 °C 1015.8 hPa Calm   1.6 km/h 94% 0 mm 0 W/m2
17:42 2.5 °C 1.6 °C 1015.8 hPa Calm     94% 0 mm 0 W/m2
17:48 2.5 °C 1.6 °C 1015.8 hPa Calm   4.8 km/h 94% 0 mm 0 W/m2
17:54 2.4 °C 1.6 °C 1015.8 hPa WSW 1.6 km/h 1.6 km/h 94% 0 mm 0 W/m2
18:00 2.4 °C 1.6 °C 1015.8 hPa WSW 1.6 km/h 1.6 km/h 94% 0 mm 0 W/m2
18:06 2.4 °C 1.6 °C 1015.8 hPa Calm   1.6 km/h 94% 0 mm 0 W/m2
18:12 2.4 °C 1.6 °C 1015.5 hPa Calm     94% 0 mm 0 W/m2
18:18 2.4 °C 1.6 °C 1015.5 hPa Calm     94% 0 mm 0 W/m2
18:24 2.4 °C 1.6 °C 1015.5 hPa Calm   1.6 km/h 94% 0 mm 0 W/m2
18:30 2.4 °C 1.5 °C 1015.5 hPa Calm     94% 0 mm 0 W/m2
18:36 2.4 °C 1.5 °C 1015.5 hPa Calm   3.2 km/h 94% 0 mm 0 W/m2
18:42 2.4 °C 1.5 °C 1015.5 hPa Calm     94% 0 mm 0 W/m2
18:48 2.4 °C 1.5 °C 1015.5 hPa Calm     94% 0 mm 0 W/m2
18:54 2.3 °C 1.4 °C 1015.5 hPa Calm   1.6 km/h 94% 0 mm 0 W/m2
19:00 2.3 °C 1.4 °C 1015.5 hPa Calm   1.6 km/h 94% 0 mm 0 W/m2
19:06 2.3 °C 1.4 °C 1015.5 hPa WSW 1.6 km/h 3.2 km/h 94% 0 mm 0 W/m2
19:12 2.3 °C 1.4 °C 1015.5 hPa Calm   1.6 km/h 94% 0 mm 0 W/m2
19:18 2.3 °C 1.4 °C 1015.5 hPa Calm   1.6 km/h 94% 0 mm 0 W/m2
19:24 2.3 °C 1.4 °C 1015.5 hPa Calm   1.6 km/h 94% 0 mm 0 W/m2
19:30 2.3 °C 1.4 °C 1015.5 hPa Calm   1.6 km/h 94% 0 mm 0 W/m2
19:36 2.3 °C 1.4 °C 1015.5 hPa Calm   1.6 km/h 94% 0 mm 0 W/m2
19:42 2.3 °C 1.4 °C 1015.5 hPa Calm   1.6 km/h 94% 0 mm 0 W/m2
19:48 2.3 °C 1.4 °C 1015.5 hPa WSW 1.6 km/h 1.6 km/h 94% 0 mm 0 W/m2
19:54 2.3 °C 1.4 °C 1015.5 hPa Calm   1.6 km/h 94% 0 mm 0 W/m2
20:00 2.3 °C 1.4 °C 1015.5 hPa Calm   1.6 km/h 94% 0 mm 0 W/m2
20:06 2.3 °C 1.4 °C 1014.8 hPa WSW 1.6 km/h 3.2 km/h 94% 0 mm 0 W/m2
20:12 2.3 °C 1.4 °C 1014.8 hPa South 1.6 km/h 3.2 km/h 94% 0 mm 0 W/m2
20:18 2.3 °C 1.4 °C 1014.8 hPa South 1.6 km/h 3.2 km/h 94% 0 mm 0 W/m2
20:24 2.3 °C 1.4 °C 1014.8 hPa SSW 1.6 km/h 3.2 km/h 94% 0 mm 0 W/m2
20:30 2.3 °C 1.4 °C 1015.1 hPa West 1.6 km/h 4.8 km/h 94% 0 mm 0 W/m2
20:36 2.3 °C 1.4 °C 1015.5 hPa West 3.2 km/h 4.8 km/h 94% 0 mm 0 W/m2
20:42 2.3 °C 1.4 °C 1015.5 hPa West 1.6 km/h 3.2 km/h 94% 0 mm 0 W/m2
20:48 2.3 °C 1.4 °C 1015.1 hPa West 1.6 km/h 3.2 km/h 94% 0 mm 0 W/m2
20:54 2.3 °C 1.4 °C 1015.1 hPa Calm   1.6 km/h 94% 0 mm 0 W/m2
21:00 2.3 °C 1.4 °C 1015.1 hPa West 1.6 km/h 1.6 km/h 94% 0 mm 0 W/m2
21:06 2.3 °C 1.4 °C 1015.1 hPa WSW 1.6 km/h 4.8 km/h 94% 0 mm 0 W/m2
21:12 2.3 °C 1.4 °C 1015.1 hPa SSW 1.6 km/h 4.8 km/h 94% 0 mm 0 W/m2
21:18 2.3 °C 1.4 °C 1015.1 hPa SW 1.6 km/h 4.8 km/h 94% 0 mm 0 W/m2
21:24 2.3 °C 1.4 °C 1015.1 hPa SW 1.6 km/h 1.6 km/h 94% 0 mm 0 W/m2
21:30 2.3 °C 1.4 °C 1015.1 hPa SW 1.6 km/h 1.6 km/h 94% 0 mm 0 W/m2
21:36 2.3 °C 1.4 °C 1015.5 hPa WSW 1.6 km/h 3.2 km/h 94% 0 mm 0 W/m2
21:42 2.3 °C 1.4 °C 1015.1 hPa Calm   1.6 km/h 94% 0 mm 0 W/m2
21:48 2.3 °C 1.4 °C 1015.1 hPa Calm   1.6 km/h 94% 0 mm 0 W/m2
21:54 2.3 °C 1.4 °C 1015.1 hPa Calm     94% 0 mm 0 W/m2
22:00 2.3 °C 1.4 °C 1015.1 hPa Calm     94% 0 mm 0 W/m2
22:06 2.3 °C 1.4 °C 1014.8 hPa Calm   1.6 km/h 94% 0 mm 0 W/m2
22:12 2.3 °C 1.4 °C 1014.8 hPa Calm   1.6 km/h 94% 0 mm 0 W/m2
22:18 2.3 °C 1.4 °C 1014.8 hPa WSW 1.6 km/h 3.2 km/h 94% 0 mm 0 W/m2
22:24 2.3 °C 1.4 °C 1014.8 hPa WSW 1.6 km/h 1.6 km/h 94% 0 mm 0 W/m2
22:30 2.3 °C 1.4 °C 1014.8 hPa SW 1.6 km/h 1.6 km/h 94% 0 mm 0 W/m2
22:36 2.3 °C 1.4 °C 1014.8 hPa SW 1.6 km/h 1.6 km/h 94% 0 mm 0 W/m2
22:42 2.3 °C 1.4 °C 1014.8 hPa SW 1.6 km/h 1.6 km/h 94% 0 mm 0 W/m2
22:48 2.3 °C 1.4 °C 1015.1 hPa Calm   1.6 km/h 94% 0 mm 0 W/m2
22:54 2.3 °C 1.4 °C 1015.1 hPa Calm     94% 0 mm 0 W/m2
23:00 2.3 °C 1.4 °C 1015.1 hPa Calm     94% 0 mm 0 W/m2
23:06 2.2 °C 1.3 °C 1015.1 hPa Calm     94% 0 mm 0 W/m2
23:12 2.2 °C 1.3 °C 1015.1 hPa Calm     94% 0 mm 0 W/m2
23:18 2.2 °C 1.3 °C 1015.1 hPa Calm   3.2 km/h 94% 0 mm 0 W/m2
23:24 2.3 °C 1.4 °C 1015.5 hPa SW 1.6 km/h 1.6 km/h 94% 0 mm 0 W/m2
23:30 2.3 °C 1.4 °C 1015.5 hPa SW 1.6 km/h 1.6 km/h 94% 0 mm 0 W/m2
23:36 2.3 °C 1.4 °C 1015.5 hPa Calm   3.2 km/h 94% 0 mm 0 W/m2
23:42 2.3 °C 1.4 °C 1015.5 hPa Calm   1.6 km/h 94% 0 mm 0 W/m2
23:48 2.2 °C 1.3 °C 1015.5 hPa Calm   1.6 km/h 94% 0 mm 0 W/m2
23:54 2.2 °C 1.3 °C 1015.5 hPa Calm   1.6 km/h 94% 0 mm 0 W/m2
Country Meadow, Clay, NY, USA
Compliments of Weather Underground - 2 mb